Portland, ME

1:08 PM EST on December 11, 2019 (GMT -0500)
Portland International

Weather History for KPWM - October, 2019

Change the Weather History Date:

Tuesday, October 29, 2019

  Actual Average Record
Temperature  
Mean Temperature 50 °F 45 °F  
Max Temperature 53 °F 54 °F 75 °F (1989)
Min Temperature 47 °F 35 °F 20 °F (1959)
Degree Days  
Heating Degree Days 15 20  
Month to date heating degree days 387 461  
Since 1 July heating degree days 549 682  
Cooling Degree Days 0 0  
Month to date cooling degree days 0 0  
Year to date cooling degree days 474 358  
Moisture  
Dew Point 47 °F    
Average Humidity 90    
Maximum Humidity 97    
Minimum Humidity 77    
Precipitation  
Precipitation 0.05 in 0.16 in 2.44 in (1886)
Month to date precipitation 5.82 4.55  
Year to date precipitation 40.55 37.98  
Snow  
Snow 0.00 in 0.00 in T in (1952)
Month to date snowfall 0.0 0.0  
Since 1 July snowfall 0.0 0.0  
Since 1 September snowfall 0.0 0.0  
Snow Depth 0.00 in    
Sea Level Pressure  
Sea Level Pressure 30.35 in    
Wind  
Wind Speed 2 mph ()    
Max Wind Speed 12 mph    
Max Gust Speed 16 mph    
Visibility 7.5 miles    
Events Rain    
T = Trace of Precipitation, MM = Missing Value Source: Averaged Metar Reports

Daily Weather History Graph

Daily Weather History Graph

Search for Another Location

Airport or City:

Astronomy

Oct. 29, 2019 Rise Set
Actual Time 7:12 AM EDT 5:36 PM EDT
Civil Twilight 6:43 AM EDT 6:06 PM EDT
Nautical Twilight 6:09 AM EDT 6:39 PM EDT
Astronomical Twilight 5:36 AM EDT 7:13 PM EDT
Moon 8:44 AM EDT (10/29) 6:56 PM EDT (10/29)
Length of Visible Light 11h 23m
Length of Day
10h 23m
Waxing Crescent, 3% of the Moon is Illuminated
Oct 29
Waxing Crescent
Nov 4
First Quarter
Nov 12
Full
Nov 19
Last Quarter
Nov 26
New

Hourly Weather History & Observations

Time (EDT) Temp. Dew Point Humidity Pressure Visibility Wind Dir Wind Speed Gust Speed Precip Events Conditions
12:15 AM 48.9 °F 46.9 °F 93% 30.36 in 8.0 mi Calm Calm - N/A   Overcast
1:15 AM 48.9 °F 46.0 °F 90% 30.36 in 3.0 mi Calm Calm - 0.00 in Rain Light Rain
1:37 AM 48.0 °F 46.0 °F 93% 30.36 in 7.0 mi WSW 3.5 mph - 0.01 in   Overcast
1:44 AM 48.0 °F 46.0 °F 93% 30.36 in 7.0 mi WSW 3.5 mph - 0.01 in   Overcast
1:51 AM 48.0 °F 46.0 °F 93% 30.36 in 10.0 mi Calm Calm - 0.01 in   Overcast
2:19 AM 48.9 °F 46.0 °F 90% 30.37 in 6.0 mi Calm Calm - 0.00 in   Overcast
2:35 AM 48.9 °F 46.0 °F 90% 30.37 in 10.0 mi Calm Calm - 0.00 in   Overcast
2:44 AM 48.0 °F 46.0 °F 93% 30.37 in 9.0 mi Calm Calm - 0.00 in   Overcast
2:51 AM 48.0 °F 46.0 °F 93% 30.37 in 4.0 mi Calm Calm - 0.00 in Rain Light Rain
3:00 AM 48.0 °F 46.0 °F 93% 30.36 in 3.0 mi Calm Calm - 0.01 in   Overcast
3:51 AM 48.0 °F 46.0 °F 93% 30.37 in 10.0 mi Calm Calm - 0.01 in   Overcast
4:27 AM 48.0 °F 46.0 °F 93% 30.37 in 10.0 mi Calm Calm - N/A   Overcast
4:38 AM 48.0 °F 46.0 °F 93% 30.37 in 10.0 mi Calm Calm - N/A   Overcast
4:46 AM 48.2 °F 46.4 °F 93% 30.37 in 10.0 mi Calm Calm - N/A   Overcast
4:51 AM 48.0 °F 46.0 °F 93% 30.38 in 5.0 mi Calm Calm - N/A   Overcast
4:58 AM 48.0 °F 46.0 °F 93% 30.37 in 4.0 mi Calm Calm - 0.00 in Rain Light Rain
5:30 AM 48.0 °F 46.9 °F 96% 30.37 in 3.0 mi Calm Calm - 0.00 in Rain Light Rain
5:51 AM 48.9 °F 46.0 °F 90% 30.37 in 4.0 mi Calm Calm - 0.00 in   Overcast
6:29 AM 48.9 °F 46.9 °F 93% 30.37 in 5.0 mi Calm Calm - 0.01 in   Overcast
6:51 AM 48.9 °F 46.9 °F 93% 30.38 in 1.8 mi SE 3.5 mph - 0.01 in Rain Light Rain
7:51 AM 48.9 °F 48.0 °F 97% 30.38 in 3.0 mi Calm Calm - 0.01 in Rain Light Rain
8:51 AM 50.0 °F 48.0 °F 93% 30.40 in 6.0 mi South 5.8 mph - 0.00 in   Overcast
9:51 AM 51.1 °F 48.0 °F 89% 30.38 in 10.0 mi SE 4.6 mph - N/A   Mostly Cloudy
9:54 AM 51.1 °F 48.0 °F 89% 30.37 in 10.0 mi SSE 4.6 mph - N/A   Mostly Cloudy
10:00 AM 51.1 °F 48.0 °F 89% 30.38 in 2.0 mi South 6.9 mph - 0.00 in Rain Light Rain
10:51 AM 51.1 °F 48.0 °F 89% 30.39 in 3.0 mi South 6.9 mph - 0.01 in   Overcast
11:51 AM 52.0 °F 46.9 °F 83% 30.38 in 10.0 mi SSE 6.9 mph - N/A   Overcast
12:51 PM 52.0 °F 45.0 °F 77% 30.35 in 10.0 mi South 5.8 mph - N/A   Overcast
1:51 PM 52.0 °F 46.0 °F 80% 30.34 in 10.0 mi South 8.1 mph - N/A   Overcast
2:51 PM 52.0 °F 46.9 °F 83% 30.33 in 10.0 mi South 5.8 mph - N/A   Overcast
3:51 PM 52.0 °F 45.0 °F 77% 30.32 in 10.0 mi South 6.9 mph - N/A   Overcast
4:51 PM 52.0 °F 46.9 °F 83% 30.32 in 10.0 mi South 3.5 mph - N/A   Overcast
5:02 PM 52.0 °F 46.9 °F 83% 30.32 in 10.0 mi South 5.8 mph - N/A   Overcast
5:11 PM 52.0 °F 46.9 °F 83% 30.31 in 10.0 mi South 5.8 mph - N/A   Overcast
5:18 PM 51.1 °F 46.9 °F 86% 30.31 in 8.0 mi South 5.8 mph - N/A   Overcast
5:31 PM 51.1 °F 46.9 °F 86% 30.30 in 8.0 mi South 5.8 mph - 0.00 in Rain Light Rain
5:51 PM 51.1 °F 48.0 °F 89% 30.32 in 10.0 mi South 3.5 mph - 0.00 in   Overcast
5:58 PM 51.1 °F 48.0 °F 89% 30.31 in 9.0 mi Variable 3.5 mph - N/A   Overcast
6:51 PM 51.1 °F 48.0 °F 89% 30.31 in 3.0 mi South 3.5 mph - N/A   Overcast
7:51 PM 51.1 °F 48.9 °F 92% 30.32 in 9.0 mi South 4.6 mph - N/A   Overcast
8:06 PM 51.1 °F 48.9 °F 92% 30.32 in 8.0 mi South 4.6 mph - N/A   Overcast
8:28 PM 52.0 °F 48.9 °F 89% 30.32 in 9.0 mi South 5.8 mph - N/A   Overcast
8:51 PM 52.0 °F 48.9 °F 89% 30.32 in 10.0 mi SSW 5.8 mph - N/A   Overcast
9:51 PM 52.0 °F 50.0 °F 93% 30.32 in 10.0 mi South 3.5 mph - N/A   Overcast
10:51 PM 52.0 °F 50.0 °F 93% 30.32 in 10.0 mi WSW 4.6 mph - N/A   Overcast
11:51 PM 52.0 °F 50.0 °F 93% 30.32 in 7.0 mi SW 5.8 mph - N/A   Overcast
11:58 PM 53.1 °F 50.0 °F 89% 30.32 in 7.0 mi SW 4.6 mph - N/A   Overcast